Location: Clermont
(50.2608°N, 4.3172°E)
Time: 16:46:42
(UTC+00:00)

Cosmos 1867 - Pass Details

Date: 13 August 2020
Orbit: 777 x 798 km, 65.0° (Epoch: 25 September)

Event Time Altitude Azimuth Distance (km) Brightness Sun altitude
Rises 20:04:04 0° 211° (SSW) 3,271 6.7 -9.1°
Reaches altitude 10° 20:06:28 10° 209° (SSW) 2,349 6.0 -9.4°
Maximum altitude 20:11:51 73° 126° (SE) 833 3.5 -10.1°
Drops below altitude 10° 20:17:18 10° 43° (NE) 2,376 6.0 -10.7°
Sets 20:19:45 0° 42° (NE) 3,311 6.8 -11.1°
